星链-32543 (STARLINK-32543)

导读 | 星芒AI

STARLINK-32543 是 SpaceX 星链计划中的一颗低轨通信卫星,属于第 6 批星链卫星群。该卫星于 2023 年发射,旨在为全球提供高速互联网服务。它运行在约 550 公里的轨道高度,采用先进的通信技术,支持宽带接入和低延迟传输。星链项目计划部署数万颗卫星,以构建覆盖全球的卫星互联网网络。STARLINK-32543 在提升偏远地区网络覆盖和推动全球数字连接方面发挥着重要作用。

基本信息
目录编号:
63364
目录名称:
STARLINK-32543
国际标识:
2025-063B
轨道中心:
EARTH
卫星名称:
星链-32543
卫星全名:
星链-32543 (STARLINK-32543)
卫星状态:
在轨 (已飞行226 天)
发射日期:
2025-03-26 UTC
国别 :
美国 (US)
星等 :
--
轨道信息
数据来源 国际轨道数据
星历时间: 2025-11-07T12:49:45+0800
13小时前
查看轨道信息
半长轴: 6825.632km
偏心率: 0.000119
轨道倾角: 53.160°
近地点辐角 68.400°
升交点赤经 258.745°
平近点角 291.713°
近地点: 446.684km
远地点: 448.31km
周期: 93.535分钟
每日圈数: 15.395312
详细信息
固有亮度:
5
最大亮度:
2.5
卫星平台:
Starlink V1.0
覆盖范围:
全球
运营商:
太空探索技术公司
运营商所在国:
美国
制造商(研发单位):
太空探索技术公司
制造商所在国:
美国
使用方式:
暂无
卫星简介
Starlink 计划是 SpaceX 推出的全球卫星互联网项目,通过发射低轨道卫星,为全球尤其是偏远地区提供高速、低延迟的互联网服务。自 2019 年起,Starlink 已部署数千颗卫星,旨在缩小全球数字鸿沟,推动互联网普及。该项目还为军事、航空等行业提供通信支持,带来广泛经济效益。
2D轨道图
3D轨道图
轨道高度分析图
轨道倾角分析图
轨道综合分析图
查看轨道综合分析图